Location: Camp at the Woods
(43.2055°N, 93.0905°W)
Time: 09:14:04
(UTC+00:00)

BlueWalker 3 - Pass Details

Date: 18 April 2024
Orbit: 482 x 494 km, 53.2° (Epoch: 22 May)

Event Time Altitude Azimuth Distance (km) Brightness Sun altitude
Exits shadow 09:58:46 11° 180° (S) 1,598 4.2 -15.1°
Drops below altitude 10° 09:59:04 10° 178° (S) 1,686 4.3 -15.0°
Sets 10:01:34 0° 162° (SSE) 2,561 5.4 -14.7°
